Weather History for Manitowoc, WI

Change the Weather History Date:

Wednesday, January 15, 2014

  Actual Average Record
Temperature  
Mean Temperature 14 °F -  
Max Temperature 19 °F 25 °F 50 °F (1953)
Min Temperature 10 °F 10 °F -26 °F (1972)
Degree Days  
Heating Degree Days 50    
Moisture  
Dew Point 9 °F    
Average Humidity 79    
Maximum Humidity 88    
Minimum Humidity 65    
Precipitation  
Precipitation 0.00 in - - ()
Sea Level Pressure  
Sea Level Pressure 29.95 in    
Wind  
Wind Speed 14 mph (West)    
Max Wind Speed 18 mph    
Max Gust Speed 23 mph    
Visibility 8 miles    
Events Snow    
Averages and records for this station are not official NWS values.
T = Trace of Precipitation, MM = Missing Value Source: NWS Daily Summary

Daily Weather History Graph

Daily Weather History Graph

Search for Another Location

Airport:

Trip Planner

Search our weather history database for the weather conditions in past years. The results will help you decide how hot, cold, wet, or windy it might be!

Date:

Astronomy

Jan. 15, 2014 Rise Set
Actual Time 7:22 AM CST 4:38 PM CST
Civil Twilight 6:50 AM CST 5:10 PM CST
Nautical Twilight 6:14 AM CST 5:46 PM CST
Astronomical Twilight 5:40 AM CST 6:20 PM CST
Moon 4:37 PM CST (1/15) 6:36 AM CST (1/15)
Length of Visible Light 10h 19m
Length of Day
9h 15m
Full, 100% of the Moon is Illuminated
Jan 15
Full
Jan 15
Full
Jan 23
Last Quarter
Jan 30
New
Feb 6
First Quarter

Hourly Weather History & Observations

Time (CST) Temp. Windchill Dew Point Humidity Pressure Visibility Wind Dir Wind Speed Gust Speed Precip Events Conditions
12:56 AM 16.0 °F -0.4 °F 12.9 °F 88% 29.89 in 2.5 mi NW 18.4 mph 23.0 mph 0.00 in Snow Light Snow
1:33 AM 15.8 °F -0.2 °F 12.2 °F 86% 29.83 in 3.0 mi NW 17.3 mph - 0.00 in Snow Light Snow
1:56 AM 15.1 °F -1.1 °F 10.9 °F 84% 29.92 in 7.0 mi NW 17.3 mph 21.9 mph 0.00 in Snow Light Snow
2:53 AM 15.8 °F 0.3 °F 12.2 °F 86% 29.87 in 2.5 mi NW 16.1 mph - 0.00 in Snow Light Snow
2:56 AM 16.0 °F 0.1 °F 12.0 °F 84% 29.95 in 4.0 mi NW 17.3 mph - 0.00 in Snow Light Snow
3:11 AM 15.8 °F 0.3 °F 12.2 °F 86% 29.88 in 5.0 mi NNW 16.1 mph - 0.00 in Snow Light Snow
3:36 AM 15.8 °F 0.9 °F 10.4 °F 79% 29.89 in 9.0 mi NNW 15.0 mph - 0.00 in Snow Light Snow
3:56 AM 16.0 °F 1.1 °F 10.0 °F 77% 29.97 in 10.0 mi NNW 15.0 mph - 0.00 in   Overcast
4:56 AM 14.0 °F 0.5 °F 8.1 °F 77% 30.01 in 10.0 mi NW 11.5 mph - N/A   Overcast
5:56 AM 14.0 °F 2.0 °F 9.0 °F 80% 30.02 in 9.0 mi NNW 9.2 mph - 0.00 in Snow Light Snow
6:56 AM 16.0 °F 6.3 °F 9.0 °F 74% 30.04 in 10.0 mi NW 6.9 mph - 0.00 in   Overcast
7:56 AM 15.1 °F 5.2 °F 9.0 °F 77% 30.06 in 10.0 mi NW 6.9 mph - N/A   Overcast
8:56 AM 17.1 °F 5.0 °F 10.9 °F 77% 30.07 in 9.0 mi NW 10.4 mph - 0.00 in Snow Light Snow
9:56 AM 18.0 °F 7.7 °F 10.9 °F 74% 30.07 in 9.0 mi NW 8.1 mph - 0.00 in Snow Light Snow
10:56 AM 19.0 °F 7.5 °F 10.0 °F 68% 30.07 in 10.0 mi NW 10.4 mph - 0.00 in   Overcast
11:56 AM 19.9 °F 8.6 °F 10.0 °F 65% 30.04 in 9.0 mi West 10.4 mph - 0.00 in Snow Light Snow
12:56 PM 18.0 °F 4.8 °F 10.9 °F 74% 30.05 in 5.0 mi West 12.7 mph - 0.00 in Snow Light Snow
1:56 PM 18.0 °F 7.7 °F 10.0 °F 71% 30.02 in 9.0 mi WSW 8.1 mph - 0.00 in Snow Light Snow
2:56 PM 16.0 °F 4.4 °F 9.0 °F 74% 30.03 in 9.0 mi WSW 9.2 mph - 0.00 in Snow Light Snow
3:56 PM 14.0 °F 2.0 °F 8.1 °F 77% 30.01 in 9.0 mi WSW 9.2 mph - 0.00 in Snow Light Snow
4:36 PM 12.2 °F -0.2 °F 6.8 °F 79% 29.94 in 9.0 mi WSW 9.2 mph - 0.00 in Snow Light Snow
4:51 PM 12.2 °F -1.8 °F 6.8 °F 79% 29.93 in 9.0 mi WSW 11.5 mph - 0.00 in Snow Light Snow
4:56 PM 12.0 °F -1.3 °F 7.0 °F 80% 30.01 in 9.0 mi WSW 10.4 mph - 0.00 in Snow Light Snow
5:52 PM 10.4 °F -4.1 °F 6.8 °F 85% 29.94 in 9.0 mi WSW 11.5 mph - 0.00 in Snow Light Snow
5:56 PM 10.9 °F -2.6 °F 7.0 °F 84% 30.02 in 9.0 mi WSW 10.4 mph - 0.00 in Snow Light Snow
6:53 PM 10.4 °F -3.3 °F 6.8 °F 85% 29.87 in 10.0 mi SSW 10.4 mph - 0.00 in   Partly Cloudy
6:56 PM 10.9 °F -1.8 °F 7.0 °F 84% 29.95 in 10.0 mi SSW 9.2 mph - 0.00 in   Partly Cloudy
7:56 PM 10.9 °F -2.6 °F 7.0 °F 84% 29.92 in 10.0 mi SSW 10.4 mph - N/A   Mostly Cloudy
8:56 PM 12.0 °F -2.0 °F 7.0 °F 80% 29.87 in 10.0 mi SSW 11.5 mph - N/A   Partly Cloudy
9:56 PM 12.0 °F -3.4 °F 6.1 °F 77% 29.83 in 10.0 mi SW 13.8 mph - N/A   Overcast
10:56 PM 14.0 °F -0.2 °F 8.1 °F 77% 29.81 in 9.0 mi SSW 12.7 mph - 0.00 in Snow Light Snow
11:56 PM 15.1 °F -0.1 °F 10.0 °F 80% 29.76 in 5.0 mi SSW 15.0 mph - 0.00 in Snow Light Snow